星链-4277 (STARLINK-4277 )

导读

STARLINK-4277是美国太空探索技术公司Starlink星座组网卫星,于2022年7月7日发射升空,属于星链低轨互联网星座的组成部分。星链星座旨在为全球用户提供覆盖广泛的低延迟高速互联网服务,该卫星承担星座通信组网任务,支撑全球联网覆盖的持续拓展。

Basic Information
目录编号:
53009
目录名称:
STARLINK-4277
国际标识:
2022-076Z
轨道中心:
EARTH
卫星名称:
星链-4277
卫星全名:
星链-4277 (STARLINK-4277 )
卫星状态:
在轨 (已飞行1520 天)
发射日期:
2022-07-07 UTC
国别 :
美国 (US)
星等 :
--
Orbit Information
数据来源 国际轨道数据
星历时间: 2026-09-03T22:56:09+0800
16小时前
查看轨道信息
半长轴: 6837.759km
偏心率: 0.0001798
轨道倾角: 53.163°
近地点辐角 41.075°
升交点赤经 0.550°
平近点角 319.039°
近地点: 458.392km
远地点: 460.852km
周期: 93.784分钟
每日圈数: 15.354374
Detailed Information
固有亮度:
5
最大亮度:
2.5
卫星平台:
Starlink v1.5
覆盖范围:
全球
运营商:
太空探索技术公司
运营商所在国:
美国
制造商(研发单位):
太空探索技术公司
制造商所在国:
美国
使用方式:
暂无
Satellite Introduction
星链(Starlink)计划是由太空探索技术公司(SpaceX)提出的一个巨型低轨卫星互联网星座项目,计划在2019年至2024年间在太空搭建由约1.2万颗卫星组成的“星链”网络,其中1584颗将部署在地球上空550千米处的近地轨道,并从2020年开始工作。该卫星仍在工作。
2D Orbit Map
3D Orbit Map
Orbit Altitude Analysis Chart
Orbit Inclination Analysis Chart
Orbit Comprehensive Analysis Chart
View Comprehensive Chart
Conjunction Data List
Event ID Objects TCA Miss Dist (km) Collision Risk Probability Collision Risk Index (CRI) Action
CDM_260904-015305-300905-701224
OBJECT J (57012)
2026-09-04T
01:53:13+0000
0.443 km
远距离
1.562268E-4 高风险 0.79
CDM_260830-070805-300906-489122
OBJECT R (64891)
2026-08-30T
07:08:43+0000
1.444 km
极远距离
7.57532E-6 低风险 0.53
CDM_260903-225005-300906-307121
2026-09-03T
22:50:55+0000
2.058 km
极远距离
2.191348E-6 低风险 0.42
CDM_260904-054705-300905-701222
OBJECT J (57012)
2026-09-04T
05:47:50+0000
2.576 km
极远距离
9.676835E-7 极低风险 0.35
CDM_260905-123705-300906-601621
2026-09-05T
12:37:23+0000
1.865 km
极远距离
6.400785E-7 极低风险 0.31